This demonstration page uses our WeatherBlox Daily Observations layout. Learn more.

Left ArrowRight Arrow

38.80484, -77.04692

Hourly Observations for October 9, 2021

Temp ( °F °C ) Dew Point ( °F °C ) Humidity (%) Winds ( mph kmh ) Pressure ( in mb ) Visibility ( mi km ) Precip ( " mm )
12:52 am 00:52 Cloudy 68 20 61 16.1 78 78 SSE 6 9 30.13 1020 10 16 0.00 0.00
1:52 am 01:52 Cloudy 67 19.4 60 15.6 79 79 SSE 5 7 30.14 1021 10 16 0.00 0.00
2:52 am 02:52 Cloudy 67 19.4 61 16.1 81 81 E 3 6 30.13 1020 10 16 0.00 0.00
3:52 am 03:52 Cloudy 67 19.4 60 15.6 79 79 E 7 11 30.11 1020 10 16 0.00 0.00
4:52 am 04:52 Cloudy 66 18.9 60 15.6 81 81 NE 6 9 30.12 1020 10 16 0.00 0.00
5:52 am 05:52 Cloudy 66 18.9 61 16.1 84 84 NE 7 11 30.13 1020 10 16 0.00 0.00
6:52 am 06:52 Mostly Cloudy 65 18.3 60 15.6 84 84 NE 7 11 30.13 1020 10 16 0.00 0.00
7:52 am 07:52 Mostly Cloudy 66 18.9 61 16.1 84 84 NNE 10 17 30.14 1021 10 16 0.00 0.00
8:40 am 08:40 Cloudy 67 19.4 62 16.7 84 84 NNE 8 13 30.16 1021 10 16 0.00 0.00
8:52 am 08:52 Cloudy 67 19.4 62 16.7 84 84 NNE 8 13 30.16 1021 10 16 0.00 0.00
9:52 am 09:52 Cloudy 69 20.6 62 16.7 78 78 NE 10 17 30.16 1021 10 16 0.00 0.00
10:21 am 10:21 Cloudy 70 21.1 62 16.7 76 76 NE 12 19 30.16 1021 10 16 0.00 0.00
10:52 am 10:52 Cloudy 71 21.7 61 16.1 71 71 ENE 14 22 30.15 1021 10 16 0.00 0.00
11:52 am 11:52 Cloudy 72 22.2 61 16.1 68 68 ENE 10 17 30.16 1021 10 16 0.00 0.00
12:15 pm 12:15 Cloudy 71 21.7 61 16.1 71 71 NE 12 19 30.15 1021 10 16 0.00 0.00
12:17 pm 12:17 Cloudy 71 21.7 61 16.1 71 71 NE 14 22 30.15 1021 10 16 0.00 0.00
12:23 pm 12:23 Cloudy 72 22.2 61 16.1 68 68 NE 12 19 30.15 1021 10 16 0.00 0.00
12:52 pm 12:52 Cloudy 72 22.2 61 16.1 68 68 NE 10 17 30.14 1021 10 16 0.00 0.00
1:52 pm 13:52 Cloudy 73 22.8 61 16.1 66 66 NNE 12 19 30.12 1020 10 16 0.00 0.00
2:52 pm 14:52 Cloudy 73 22.8 60 15.6 64 64 ENE 10 17 30.11 1020 10 16 0.00 0.00
3:52 pm 15:52 Cloudy 72 22.2 60 15.6 66 66 E 12 19 30.10 1019 10 16 0.00 0.00
4:52 pm 16:52 Cloudy 73 22.8 60 15.6 64 64 ENE 9 15 30.10 1019 10 16 0.00 0.00
5:52 pm 17:52 Cloudy 72 22.2 60 15.6 66 66 E 12 19 30.11 1020 10 16 0.00 0.00
6:52 pm 18:52 Cloudy 71 21.7 59 15 66 66 ENE 13 20 30.11 1020 10 16 0.00 0.00
7:52 pm 19:52 Cloudy 70 21.1 59 15 68 68 ENE 12 19 30.12 1020 10 16 0.00 0.00
8:52 pm 20:52 Cloudy 69 20.6 59 15 70 70 NE 8 13 30.12 1020 10 16 0.00 0.00
9:52 pm 21:52 Cloudy 69 20.6 60 15.6 73 73 NE 13 20 30.13 1020 10 16 0.00 0.00
10:52 pm 22:52 Cloudy 68 20 60 15.6 76 76 NE 10 17 30.12 1020 10 16 0.00 0.00
11:52 pm 23:52 Cloudy 68 20 60 15.6 76 76 NE 12 19 30.11 1020 10 16 0.00 0.00

Powered by AerisWeather